Hauptseite
METAR-TAF:

METAR-TAF

Flughäfen :

Capo Mele

Andora, Italien

Breite: 43-57N, Länge: 008-10E, Höhe: 220 m

Beobachtung

Neuester Wetterbericht von vor 1 Stunde und 17 Minuten, um 14:55 UTC
Wind 2 kt aus Nordost
Temperatur 21°C
Luftfeuchtigkeit 53%
Luftdruck 1027 hPa
Sichtweite 10 km oder mehr
keine Wolken unter 1500 m und keine Kumulonimbus oder Gewitterwolken

METAR: LIMU 141455Z 05002KT CAVOK 21/11 Q1027 RMK FEW FEW200 QUK 2 QUL 1 SE VIS MAR 20 KM VIS MIN 9999

Zeit: 17:12 (16:12 UTC)


TAF: fehlend

Wetterbeobachtungen und Prognosen von mehr als 4000 Flughäfen (METAR und TAF Bericht).

Die verfügbaren Stationen werden durch gelbe und rote Markierungen auf der Karte dargestellt.

Führen Sie die Maus auf sie, um den Namen der Station zu sehen.

Darauf klicken, um die Beobachtung von Wetterbeobachtungen und Prognosen zu sehen.

Um die Karte zu ändern : klicken Sie auf den grünen Tasten mit einem schwarzen Kreuz Zum Vergrößern, auf den grünen Button mit einem Gedankenstrich zu verkleinern, oder auf die grünen Pfeile für benachbarte Karten.


METAR-TAF: